Regional Weather Roundup
Issued by NWS Jackson, KY

Home | Current Version | Previous Version | Graphics & Text | Print | Product List | Glossary On
Versions: 1 2 3 4 5 6 7 8 9 10 11 12 13 14 15 16 17 18 19 20 21 22 23 24 25 26 27 28 29 30 31 32 33 34 35 36 37 38 39 40 41 42 43 44 45 46 47 48 49 50
000
ASUS43 KJKL 280910
RWRJKL

EAST KENTUCKY HOURLY WEATHER ROUNDUP
NATIONAL WEATHER SERVICE JACKSON KY
500 AM EDT SUN AUG 28 2016

NOTE: "FAIR" INDICATES FEW OR NO CLOUDS BELOW 12,000 FEET WITH
NO SIGNIFICANT WEATHER AND/OR OBSTRUCTIONS TO VISIBILITY.

* THESE REPORTS ARE NOT UNDER NWS QUALITY CONTROL AND MAY NOT
  REPORT WEATHER SUCH AS PRECIPITATION AND FOG.

KYZ079-080-083-085-087-088-110-112-115-119-120-281000
...EASTERN KENTUCKY...

CITY           SKY/WX    TMP DP  RH WIND       PRES   REMARKS
JACKSON        CLOUDY    73  69  87 CALM      30.18R
LONDON         CLEAR     70  67  90 SE3       30.17S
SOMERSET*      PTCLDY    68  68 100 CALM      30.16R
MONTICELLO*    CLEAR    N/A N/A N/A N8        30.17S
WILLIAMSBURG*  SUNNY     66  66 100 E3        30.17F
MIDDLESBORO*   FOG       67  67 100 CALM      30.19R VSB 3/4
HARLAN APT*      N/A     70  68  94 CALM      30.20R
PIKE CO APT*     N/A     75  72  89 CALM      30.18R
BIG SANDY APT* CLOUDY    74  73  98 CALM      30.17R
MOREHEAD APT*  PTSUNNY   70  68  94 CALM      30.17S
$$

KYZ035-036-041-042-044-050-067-078-099-281000
...CENTRAL KENTUCKY...

CITY           SKY/WX    TMP DP  RH WIND       PRES   REMARKS
MT STERLING*   PTCLDY    70  70 100 CALM      30.17S FOG
FLEMING/MASON* CLOUDY    70  69  98 CALM      30.17R
DANVILLE*      CLEAR     68  68 100 CALM      30.16R FOG
LEXINGTON      CLEAR     72  70  93 CALM      30.15S
FRANKFORT      PTCLDY    75  71  87 NW6       30.13S
LOUISVILLE     PTCLDY    77  72  84 W3        30.12S
LEBANON*         N/A     70  70 100 W3        30.15R FOG
GLASGOW*       CLEAR     70  70 100 NE3       30.13R
BOWLING GREEN  CLEAR     73  71  93 CALM      30.11S FOG
$$

KYZ091>093-OHZ055-061-077-WVZ005-015-034-035-042-281000
...SOUTHERN OHIO/WEST VIRGINIA...

CITY           SKY/WX    TMP DP  RH WIND       PRES   REMARKS
COVINGTON      MOCLDY    70  70 100 SE3       30.15S
COLUMBUS       MOCLDY    68  67  96 N3        30.15R
DAYTON         PTCLDY    70  68  93 CALM      30.17R
WILMINGTON     CLEAR     66  66 100 CALM      30.16S
HUNTINGTON     CLOUDY    73  70  90 W3        30.14R
CHARLESTON     CLOUDY    73  71  93 CALM      30.15R
PINEVILLE*     CLOUDY    71  67  89 MISG      30.26R FOG
BECKLEY        PTCLDY    72  67  84 SE5       30.26R
BLUEFIELD      CLOUDY    69  63  81 SE7       30.28S
LOGAN CO APT*    N/A     79  70  73 CALM      30.18R
$$

VAZ002-007-008-TNZ017-027-036-066-071-281000
...SOUTHWEST VIRGINIA/EAST TENNESSEE...

CITY           SKY/WX    TMP DP  RH WIND       PRES   REMARKS
WISE*          CLOUDY    73  61  64 CALM      30.27R
JONESVILLE*      N/A     72  70  94 CALM      30.21R
ABINGDON*      CLOUDY    76  70  81 E9        30.22S
BRISTOL        CLOUDY    73  70  90 CALM      30.17S
MORRISTOWN*    SUNNY     73  68  83 NE6       30.15S
SEVIERVILLE*   SUNNY     66  66 100 CALM      30.13S
KNOXVILLE      PTCLDY    72  70  93 N3        30.13R
OAK RIDGE      CLEAR     72  69  90 CALM      30.15S
CROSSVILLE     CLEAR     68  66  93 CALM      30.19S
NASHVILLE      CLEAR     73  70  90 N3        30.11S
$$

...KEY TO REMARKS...
VSB - VISIBILITY IN MILES
WCI - WIND CHILL INDEX
HX  - HEAT INDEX

$$



USA.gov is the U.S. government's official web portal to all federal, state and local government web resources and services.